Regional Weather Roundup
Issued by NWS Grand Forks, ND

Home | Current Version | Previous Version | Graphics & Text | Print | Product List | Glossary On
Versions: 1 2 3 4 5 6 7 8 9 10 11 12 13 14 15 16 17 18 19 20 21 22 23 24 25 26 27 28 29 30 31 32 33 34 35 36 37 38 39 40 41 42 43 44 45 46 47 48 49 50
000
ASUS43 KFGF 270010
RWRFGF
PRAIRIE TO PINES  WEATHER ROUNDUP
NATIONAL WEATHER SERVICE EASTERN NORTH DAKOTA/GRAND FORKS ND
600 PM CST SUN FEB 26 2017

 **SATELLITE DATA USED TO AUGMENT SKY COVER AT AUTOMATED STATIONS**
 *****  WEATHER ACROSS EASTERN NORTH DAKOTA  *****

CITY           SKY/WX    TMP DP  RH WIND       PRES   REMARKS
GRAND FORKS    FAIR      15   4  61 SW8       29.87S WCI   4
6HR MIN TEMP:  15; 6HR MAX TEMP:  20; 6HR PCP: TRACE;

GRAND FRKS AFB FAIR      15   6  69 SW7       29.87S WCI   5
DEVILS LAKE    FAIR      12   7  80 SW8       29.83S WCI   0
6HR MIN TEMP:   6; 6HR MAX TEMP:  15; 6HR PCP: TRACE;

FARGO          CLOUDY    19  10  68 CALM      29.90S
WAHPETON ARPT  CLOUDY    18  10  73 SE3       29.91S
$$

 ***** WEATHER ACROSS CENTRAL AND WESTERN NORTH DAKOTA  *****

CITY           SKY/WX    TMP DP  RH WIND       PRES   REMARKS
BISMARCK       FAIR      20  14  77 E9        29.82R WCI   9
6HR MIN TEMP:  20; 6HR MAX TEMP:  23; 6HR PCP: TRACE;

MINOT          FAIR      20  11  68 SW10      29.79R WCI   9
6HR MIN TEMP:  19; 6HR MAX TEMP:  23;

JAMESTOWN      CLOUDY    20  15  81 S5        29.82S WCI  13
6HR MIN TEMP:  19; 6HR MAX TEMP:  22; 6HR PCP: TRACE;

MINOT AFB      FAIR      16  10  77 SW10      29.79R WCI   3
GARRISON         N/A     18  12  77 SW6       29.80R WCI  10
WILLISTON      CLOUDY    23  15  71 W8        29.80R WCI  14
6HR MIN TEMP:  21; 6HR MAX TEMP:  24;

DICKINSON      FLURRIES  23  16  74 N13       29.75R WCI  11
6HR MIN TEMP:  23; 6HR MAX TEMP:  30; 6HR PCP: TRACE;

HETTINGER      MOCLDY    28  23  81 NW17      29.76R WCI  16
6HR MIN TEMP:  28; 6HR MAX TEMP:  35; 6HR PCP: TRACE;

$$

 *****  OTHER AIRPORT OBSERVATIONS IN OUR AREA  *****

CITY           SKY/WX    TMP DP  RH WIND       PRES   REMARKS
WALHALLA       NOT AVBL
GRAFTON AIRPOR FAIR      18   9  68 SW9       29.88R WCI   6
VALLEY CITY AR CLOUDY    19  16  86 SW8       29.86S WCI   9
CANDO          NOT AVBL
CAVALIER APRT    N/A     18   9  68 SW9       29.84S WCI   6
GWINNER        CLOUDY    25  19  80 E7        29.86S WCI  17
SHEYENNE NWR     N/A     22   9  58 CALM      29.95S
ROLLA          FAIR      14   7  73 W14       29.77R WCI  -1
 ***** THE ABOVE OBSERVATIONS ARE NON NWS ARE NOT QUALITY
       CONTROLLED AND MAY MIS-REPORT RAIN FOR SNOW...
$$

  *****  WEATHER ACROSS NORTHERN MINNESOTA  *****

CITY           SKY/WX    TMP DP  RH WIND       PRES   REMARKS
FLAG ISLAND    FAIR      18   1  49 W10       29.79R WCI   6
WARROAD        FAIR      14   3  62 SW7       29.83R WCI   4
ROSEAU         FAIR      16   7  67 SW7       29.84R WCI   6
HALLOCK        MOCLDY    18  10  73 SW9       29.85R WCI   6
THF RVR FALLS  FAIR      13   6  74 SW10      29.87R WCI   0
BAUDETTE       FAIR      17  -1  45 W9        29.80R WCI   6
6HR MIN TEMP:  14; 6HR MAX TEMP:  20;

WASKISH        FAIR      14   7  73 SW12      29.84R WCI   0
CROOKSTON      FAIR      18  10  73 W7        29.89S WCI   8
GREENBUSH NDAW   N/A     14   9  79 SW9         N/A  WCI   2
$$
  *****  WEATHER ACROSS CENTRAL AND WEST MINNESOTA  *****

CITY           SKY/WX    TMP DP  RH WIND       PRES   REMARKS
FOSSTON        FAIR      14   5  67 SW6       29.87S WCI   5
BEMIDJI        FAIR      17   6  62 W9        29.85R WCI   5
PARK RAPIDS    FAIR      18   4  54 W7        29.84R WCI   9
6HR MIN TEMP:  18; 6HR MAX TEMP:  23;

ELBOW LAKE     CLOUDY    15   8  75 CALM      29.91R
WADENA         FAIR      16   7  67 W5        29.87S WCI   9
DETROIT LAKES  FAIR      19  10  68 W5        29.88S WCI  13
MOORHEAD       CLOUDY    18   9  68 SE3       29.91S
FERGUS FALLS   CLOUDY    16   9  73 CALM      29.95R
MORRIS MN      CLOUDY    21  14  73 N8        29.89R WCI  12
STAPLES        FAIR      10   3  72 W6        29.88R WCI   1
$$
  *****  WEATHER ELSEWHERE ACROSS MINNESOTA  *****

CITY           SKY/WX    TMP DP  RH WIND       PRES   REMARKS
DULUTH         FAIR      19  -1  41 W6        29.83R WCI  11
6HR MIN TEMP:  19; 6HR MAX TEMP:  22; 6HR PCP: TRACE;

INTRNTL FALLS  FAIR      16  -1  47 NW5       29.79S WCI   9
6HR MIN TEMP:  14; 6HR MAX TEMP:  19;

ELY            FAIR      16  -2  45 W5        29.80R WCI   9
CLOQUET        FAIR      19  -2  38 W3        29.85R
WHEATON        CLOUDY    19  12  73 N6        29.92S WCI  11
BRAINERD       FAIR      22   2  42 W3        29.87R
6HR MIN TEMP:  20; 6HR MAX TEMP:  24;

HIBBING        FAIR      18  -3  39 W5        29.82R WCI  11
6HR MIN TEMP:  14; 6HR MAX TEMP:  20;

ALEXANDRIA     CLOUDY    20  10  65 W7        29.88R WCI  11
6HR MIN TEMP:  20; 6HR MAX TEMP:  24;

SAINT CLOUD    FAIR      28   9  44 W8        29.88R WCI  20
6HR MIN TEMP:  28; 6HR MAX TEMP:  32;

MINNEAPOLIS    FAIR      32  13  45 W9        29.89R WCI  24
6HR MIN TEMP:  32; 6HR MAX TEMP:  40;

$$

  *****  WEATHER ACROSS SOUTH DAKOTA  *****

CITY           SKY/WX    TMP DP  RH WIND       PRES   REMARKS
SIOUX FALLS    FAIR      33  24  69 SW7       29.88S
6HR MIN TEMP:  32; 6HR MAX TEMP:  36;

BROOKINGS      FAIR      35  24  64 S9        29.83R
WATERTOWN      FAIR      32  20  61 CALM      29.81S
6HR MIN TEMP:  28; 6HR MAX TEMP:  35;

HURON          FAIR      35  18  49 W6        29.81R
6HR MIN TEMP:  31; 6HR MAX TEMP:  46;

SISSETON         N/A     24  17  74 E6        29.87S WCI  17
ABERDEEN       CLOUDY    31  20  63 E7        29.82R WCI  24
6HR MIN TEMP:  23; 6HR MAX TEMP:  33;

MITCHELL       FAIR      36  24  62 S10       29.86R
PIERRE         MOCLDY    40  15  36 W8        29.78R
6HR MIN TEMP:  38; 6HR MAX TEMP:  46;

MOBRIDGE       CLOUDY    37  23  56 NW7       29.75R
RAPID CITY     FAIR      35  16  45 NE6       29.74F
6HR MIN TEMP:  35; 6HR MAX TEMP:  39;

$$

  *****  SOME WEATHER IN NEARBY STATES *****

CITY           SKY/WX    TMP DP  RH WIND       PRES   REMARKS
GLASGOW MT     CLOUDY    23  13  65 NW7       29.80R WCI  15
6HR MIN TEMP:  23; 6HR MAX TEMP:  26; 6HR PCP: TRACE;

GREAT FALLS MT LGT SNOW  20  13  74 N13       29.73S WCI   7
6HR MIN TEMP:  20; 6HR MAX TEMP:  23; 6HR PCP:  0.03;

CHEYENNE WY    FAIR      27  10  49 S6        29.74S WCI  20
6HR MIN TEMP:  23; 6HR MAX TEMP:  28;

SCOTTSBLUFF NE FAIR      31  12  45 W9        29.82S WCI  23
6HR MIN TEMP:  25; 6HR MAX TEMP:  33;

OMAHA NE       FAIR      40  23  50 N5        29.96R
6HR MIN TEMP:  40; 6HR MAX TEMP:  45;

DES MOINES IA  FAIR      41  20  43 N7        29.97R
6HR MIN TEMP:  41; 6HR MAX TEMP:  48;

DAVENPORT IA   FAIR      41  28  60 SW9       29.95R
6HR MIN TEMP:  41; 6HR MAX TEMP:  50; 6HR PCP: TRACE;

CHICAGO IL     MOCLDY    46  21  37 SW13G20   29.95R
6HR MIN TEMP:  43; 6HR MAX TEMP:  49;

EAU CLAIRE WI  FAIR      32  20  61 W6        29.85R
6HR MIN TEMP:  30; 6HR MAX TEMP:  35;

LA CROSSE WI   FAIR      34  23  64 SW10      29.91R
6HR MIN TEMP:  34; 6HR MAX TEMP:  41;

$$

  *****  SOME NATIONAL WEATHER *****

CITY           SKY/WX    TMP DP  RH WIND       PRES   REMARKS
LA GUARDIA NY  FAIR      42  17  36 W15       30.16R
6HR MIN TEMP:  42; 6HR MAX TEMP:  45;

RALEIGH NC     FAIR      47  19  33 CALM      30.25R
6HR MIN TEMP:  47; 6HR MAX TEMP:  56;

ATLANTA GA     FAIR      59  15  18 CALM      30.20R
6HR MIN TEMP:  56; 6HR MAX TEMP:  63;

NEW ORLEANS LA MOCLDY    65  53  65 SE14      30.09R
6HR MIN TEMP:  65; 6HR MAX TEMP:  69;

OKLAHOMA CITY  MOCLDY    55  34  45 S5        29.89R
6HR MIN TEMP:  55; 6HR MAX TEMP:  59;

ALBUQUERQUE NM PTSUNNY   42  23  46 S7        29.89F
6HR MIN TEMP:  41; 6HR MAX TEMP:  45;

SALT LAKE CITY PTSUNNY   39  18  42 S16       29.75F
6HR MIN TEMP:  32; 6HR MAX TEMP:  41;

LOS ANGELES CA PTSUNNY   55  45  68 S8        29.95S
6HR MIN TEMP:  51; 6HR MAX TEMP:  56; 6HR PCP:  0.02;

BOISE ID       CLOUDY    34  25  69 S9        29.70R
6HR MIN TEMP:  34; 6HR MAX TEMP:  38;

SEATTLE WA     RAIN



USA.gov is the U.S. government's official web portal to all federal, state and local government web resources and services.